GEFSSE_con_probscp_216.txt.gz
Probability
0 0 0 0 0 0 0 0 1 2 1 0 0 0 0 0 1 3 4 4 5 6 7 7 5 4 3 3 2 1 0 0 0 0 0 0 0 0 0 0 0 0 0
0 0 0 0 0 0 0 0 1 2 1 0 0 0 1 1 1 3 4 4 5 5 5 5 4 3 2 2 2 2 1 0 0 0 0 0 0 0 0 0 0 0 0
0 0 0 0 0 0 0 0 1 1 1 0 0 0 1 2 1 1 2 2 2 2 2 2 2 1 1 1 3 3 1 0 0 0 0 0 0 0 0 0 0 0 0
0 0 0 0 0 0 0 0 0 2 2 1 0 0 1 1 1 0 0 0 0 0 0 1 1 0 0 1 4 4 3 1 0 0 0 0 0 0 0 0 0 0 0
0 0 0 0 0 0 0 0 1 3 3 2 0 0 0 0 0 0 0 0 1 0 0 0 0 0 0 2 5 6 4 1 0 0 0 0 0 0 0 0 0 0 0
0 0 0 0 0 0 0 0 1 2 3 2 0 0 0 0 0 0 0 0 1 1 0 0 0 0 0 1 4 5 4 1 0 0 0 0 0 0 0 0 0 0 0
0 0 0 0 0 0 0 1 1 1 1 1 0 0 0 0 0 0 0 0 0 1 0 0 0 0 0 0 2 3 3 2 0 0 0 0 0 0 0 0 0 0 0
0 0 0 1 1 1 0 1 2 1 0 0 0 0 0 0 0 0 0 0 0 0 0 0 0 0 0 0 1 2 3 1 0 0 0 0 0 0 0 0 0 0 0
0 0 0 1 1 1 0 1 2 2 1 0 0 1 1 1 0 0 1 0 0 0 0 0 0 0 0 0 1 2 2 1 0 0 0 0 0 0 0 0 0 0 0
0 0 0 0 0 0 0 1 2 2 1 0 0 1 1 1 0 0 0 0 0 0 0 0 0 0 0 1 1 1 1 0 0 0 0 0 0 0 0 0 0 0 0
0 0 0 0 0 0 1 2 2 2 1 1 1 1 2 2 1 0 0 0 0 0 0 0 0 0 0 0 0 0 0 0 0 0 0 0 0 0 0 0 0 0 0
0 0 0 0 0 0 1 2 3 3 3 3 2 3 3 3 2 1 1 1 0 0 0 0 0 0 0 0 0 0 0 0 0 0 0 0 0 0 0 0 0 0 0
0 0 0 0 0 0 1 2 3 4 4 3 3 2 3 3 3 3 2 1 0 0 0 0 0 0 0 0 0 0 0 0 0 0 0 0 0 0 0 0 0 0 0
0 0 0 1 1 1 1 1 2 3 3 2 1 1 1 2 3 3 3 2 0 0 0 0 0 0 0 0 0 0 0 0 0 0 0 0 0 0 0 0 0 0 0
0 0 1 2 3 3 3 2 1 1 1 1 0 0 0 1 2 2 2 1 0 0 0 0 0 0 0 0 0 0 0 0 0 1 1 0 0 0 0 0 0 0 0
0 1 2 3 4 5 5 3 1 0 1 0 0 0 0 0 1 1 1 1 0 0 0 0 0 0 0 0 0 0 0 0 0 1 2 1 0 0 0 0 0 0 0
0 1 2 3 3 4 4 3 1 0 0 0 0 0 0 0 0 0 0 1 0 0 0 0 0 0 0 0 0 0 0 0 0 1 1 1 0 0 0 0 0 0 0
1 1 2 2 3 3 3 2 1 0 0 0 0 0 0 0 0 0 0 1 1 0 0 0 0 0 0 0 0 0 0 0 0 0 0 0 0 0 0 0 0 0 0
3 3 3 3 3 3 3 2 1 1 1 1 0 0 0 0 0 0 0 1 2 1 0 0 0 0 0 0 0 0 0 0 0 0 0 0 0 0 0 0 0 0 0
5 4 3 3 4 3 3 2 1 0 0 0 0 0 0 0 0 0 1 2 3 2 1 1 1 0 0 0 0 0 0 0 0 0 0 0 1 0 0 0 0 0 0
6 5 4 4 5 5 4 2 0 0 0 0 0 0 0 1 1 2 3 3 4 3 2 2 2 1 0 0 0 0 0 0 0 0 0 0 0 0 0 0 0 0 0
7 7 6 6 6 7 6 2 1 1 0 0 0 0 1 2 4 5 5 5 5 4 2 3 3 1 0 0 0 0 0 0 0 0 0 0 0 0 0 0 0 0 0
7 7 7 8 10 11 8 3 2 3 2 1 1 1 1 3 5 6 6 7 7 6 4 4 4 3 1 1 0 0 0 0 0 0 0 0 0 0 0 0 0 0 0
7 7 7 9 12 13 10 5 3 3 3 3 3 3 3 4 6 7 7 8 8 9 7 6 5 4 3 2 1 0 0 1 1 1 0 0 0 0 0 0 1 1 1
9 9 9 11 14 15 12 10 7 5 4 4 4 3 3 5 7 9 9 10 11 11 10 9 8 7 5 4 3 2 2 3 3 2 1 1 1 0 0 0 1 3 3
10 10 11 14 16 16 14 13 10 8 6 4 3 3 3 5 8 10 10 11 12 12 12 10 10 9 7 5 4 4 4 4 4 3 2 2 1 0 0 0 1 3 4

GEFSSE_con_probscp_222.txt.gz
Probability
0 0 0 1 0 0 1 0 1 3 3 3 3 4 3 3 3 2 1 1 3 5 5 6 6 5 4 3 3 3 3 2 1 0 0 0 0 0 0 0 0 0 0
0 0 1 1 1 1 2 1 1 3 2 1 2 3 3 3 3 3 1 1 3 4 4 4 4 4 4 3 3 3 3 2 1 0 0 0 0 0 0 0 0 0 0
0 0 1 3 3 3 3 2 1 2 1 0 0 1 1 2 4 3 2 2 3 4 2 1 2 3 3 3 3 3 3 2 1 0 0 0 0 0 0 0 0 0 0
0 1 2 4 3 3 2 1 0 0 0 0 0 0 0 1 2 2 2 2 2 3 2 1 1 2 3 3 3 3 3 2 1 0 0 0 0 0 0 0 0 0 0
1 2 4 4 3 1 1 0 0 0 0 0 0 0 0 0 1 1 1 1 2 3 3 1 1 2 3 3 3 3 3 2 1 0 0 0 0 0 0 0 0 0 0
2 4 6 5 3 1 0 0 0 1 1 0 0 0 0 0 0 0 0 1 1 2 2 1 1 2 3 3 3 3 3 1 0 0 0 0 0 0 0 0 0 0 0
3 4 6 5 3 1 0 0 1 2 2 1 0 1 1 0 0 0 1 1 1 1 1 0 1 2 2 3 3 3 2 1 0 0 0 0 0 0 0 0 0 0 0
4 4 4 4 3 1 1 1 1 3 3 1 1 2 1 0 0 1 2 2 1 0 0 1 1 1 1 2 3 3 2 1 0 0 0 0 0 0 0 0 0 0 0
3 3 2 2 2 1 2 2 2 2 3 3 2 2 1 0 0 1 2 2 1 0 0 1 1 1 0 1 2 2 1 0 0 0 0 0 0 0 0 0 0 0 0
3 3 2 1 1 1 2 2 1 1 2 3 3 2 1 0 0 1 2 2 1 0 0 0 0 0 0 1 1 1 0 0 0 0 0 0 0 0 0 0 0 0 0
3 3 2 1 1 2 3 3 2 1 1 2 3 3 2 1 0 0 2 2 1 0 0 0 0 0 0 0 0 0 0 0 0 0 0 0 0 0 0 0 0 0 0
3 2 2 1 1 3 6 7 5 3 2 3 3 3 2 1 1 1 2 2 1 0 0 0 0 0 0 0 0 0 0 0 0 0 0 0 0 0 0 0 0 0 0
2 1 1 1 2 5 8 9 7 6 5 5 5 4 3 2 1 2 1 1 0 0 0 0 0 0 0 0 0 0 0 0 0 0 1 2 2 1 0 0 0 0 0
4 2 2 3 5 7 9 9 7 7 6 5 5 5 3 2 1 1 1 0 0 0 0 0 0 0 0 0 0 0 0 0 0 0 2 4 4 2 2 2 0 0 0
9 6 5 5 7 8 9 8 7 6 5 4 4 4 3 2 0 0 1 1 0 0 0 0 0 1 0 0 0 0 0 0 0 0 2 6 7 6 5 4 2 1 1
15 13 10 8 9 9 9 8 6 6 5 3 3 3 3 2 1 1 1 1 0 0 0 0 0 0 0 0 0 0 0 0 1 0 1 5 8 9 9 7 5 4 3
20 19 14 10 11 11 9 7 5 5 5 5 4 4 3 3 3 2 1 1 0 0 0 0 0 1 1 0 0 0 0 0 1 1 1 2 5 8 10 9 8 7 6
27 25 17 12 13 14 12 9 6 6 7 6 6 5 4 3 4 4 2 1 0 0 1 0 1 2 3 2 1 1 0 0 1 1 1 2 4 7 8 9 9 9 9
35 31 23 17 16 15 14 11 9 9 8 7 7 7 5 3 4 4 3 2 1 1 3 2 2 4 5 4 2 1 0 1 2 2 2 4 6 7 7 6 7 8 9
41 37 29 24 21 17 14 12 11 9 8 7 8 10 8 5 5 4 3 4 3 3 4 5 5 5 5 4 2 1 0 1 2 3 3 5 7 8 7 7 7 7 8
44 41 35 29 25 20 15 13 11 9 7 7 9 12 12 9 7 7 5 6 6 5 4 4 5 5 4 3 2 0 0 1 1 3 6 7 6 7 8 9 10 10 8
47 44 38 32 28 22 16 12 12 11 9 8 11 14 14 11 10 9 8 7 6 5 5 5 6 6 4 3 2 1 0 0 1 3 7 9 8 7 8 9 13 13 11
48 44 38 36 31 23 17 14 13 13 12 13 16 18 17 15 12 11 10 9 7 7 7 8 8 7 6 6 5 4 2 2 2 2 4 6 8 8 6 7 10 14 16
45 42 39 38 34 27 21 17 15 14 13 17 21 21 21 18 14 13 11 10 10 10 10 11 11 9 9 9 9 8 6 6 6 3 1 3 6 7 5 4 6 11 17
38 38 38 38 36 31 26 23 20 16 16 19 22 24 24 20 18 17 15 13 12 12 11 11 11 11 11 11 11 11 10 10 10 5 1 2 4 6 6 6 6 9 13
35 35 37 39 37 31 28 27 25 21 20 21 22 25 26 23 22 22 19 15 13 12 11 11 12 13 12 12 12 12 12 14 12 6 1 1 4 6 8 9 9 9 10

GEFSSE_con_probscp_228.txt.gz
Probability
0 1 2 5 5 6 7 7 5 6 9 12 13 13 13 12 12 12 9 6 4 5 6 4 1 0 0 0 1 2 2 1 0 0 0 0 0 1 2 1 0 0 0
0 0 1 4 5 6 7 7 5 5 7 9 11 12 11 11 10 8 5 4 4 5 5 3 2 0 0 0 2 3 3 2 1 0 0 0 0 1 2 1 0 0 0
0 0 1 3 5 6 7 7 5 4 5 7 9 9 8 7 6 3 2 3 4 4 3 2 1 0 0 0 2 3 3 2 1 0 0 0 0 0 1 1 0 0 0
0 0 1 2 4 6 7 6 4 4 5 6 7 7 5 5 4 3 3 4 4 2 1 1 0 0 1 1 2 3 3 2 1 0 0 0 0 0 0 0 0 0 0
0 0 1 2 3 5 6 5 3 3 4 6 7 6 3 3 4 4 4 4 3 1 0 0 0 1 2 3 3 3 3 2 1 0 0 0 0 0 0 0 0 0 0
0 0 1 2 3 4 5 3 1 2 3 5 6 4 2 1 2 3 3 3 2 1 0 0 0 1 2 3 3 3 3 2 1 0 0 0 0 0 0 0 0 0 0
0 0 1 2 2 3 2 1 1 1 2 3 3 2 1 0 1 1 1 2 2 1 0 0 0 1 2 3 3 3 3 2 1 0 0 0 0 0 0 0 0 0 0
0 0 0 1 1 1 1 1 1 2 2 1 1 1 0 0 0 0 1 2 2 1 0 0 0 1 2 3 3 3 2 1 0 0 0 0 0 0 0 0 0 0 0
1 0 0 0 0 0 0 1 2 3 3 3 2 2 1 0 0 0 1 1 1 0 0 0 0 1 2 3 3 2 1 0 0 0 0 0 0 0 0 0 0 0 0
2 1 0 0 0 0 0 0 1 3 3 3 3 2 1 0 0 0 0 0 0 0 0 0 0 0 1 2 2 1 0 0 0 0 0 0 0 0 0 0 0 0 0
2 1 0 0 0 0 0 0 1 2 3 3 2 2 1 0 0 0 0 0 0 0 0 0 0 0 0 1 1 0 0 0 0 0 0 0 0 0 0 0 0 0 0
2 1 0 0 0 0 0 0 0 1 2 1 1 1 0 0 0 0 0 0 0 0 0 0 0 0 0 0 0 0 0 0 0 0 0 0 0 0 0 0 0 0 0
2 1 0 0 0 0 0 0 0 0 0 0 0 0 0 0 0 0 0 0 0 1 0 0 0 0 0 0 0 0 0 0 0 0 0 0 0 1 1 1 1 1 0
2 1 0 0 0 0 0 0 0 0 0 0 0 0 0 0 0 0 0 0 0 0 0 0 0 0 0 0 0 0 0 0 0 0 0 0 1 2 3 3 2 2 1
3 2 1 1 0 0 0 0 0 0 0 0 0 0 0 0 0 0 0 0 0 0 0 0 0 0 0 0 0 0 0 0 0 0 0 0 1 3 4 4 3 3 3
5 4 4 3 1 1 0 0 0 0 0 0 0 0 0 0 0 0 0 0 0 0 0 0 0 0 0 0 0 0 0 0 0 0 0 0 2 3 4 3 3 3 3
6 6 7 6 4 2 1 0 0 0 0 0 0 0 0 0 1 1 0 0 0 0 0 0 0 0 0 0 0 0 0 0 0 0 0 0 1 2 3 3 3 3 3
6 6 7 7 5 3 2 1 0 0 0 0 0 0 0 1 2 2 1 0 0 0 0 0 0 0 0 0 0 0 0 0 0 0 0 0 0 1 1 2 4 4 4
6 5 6 6 4 3 2 1 0 1 1 1 0 0 1 2 3 3 2 0 0 0 0 0 0 0 0 0 0 0 0 0 0 0 0 0 0 0 0 1 3 5 5
6 5 6 7 5 3 2 1 1 2 2 2 1 1 1 3 3 3 1 0 0 0 0 1 2 1 1 0 0 0 0 0 0 0 0 0 0 0 0 0 2 3 3
10 8 8 10 8 5 3 3 3 3 3 3 3 2 3 3 3 3 2 1 0 0 0 2 3 2 1 0 0 0 0 0 0 0 0 0 0 0 0 0 0 1 1
14 12 12 14 12 7 3 2 2 2 2 2 3 4 4 4 4 4 3 2 0 0 0 1 2 3 2 0 0 0 0 0 0 0 0 0 0 0 0 0 0 0 0
18 16 16 17 15 10 5 3 2 1 1 1 3 4 5 4 4 4 3 2 1 0 0 0 1 2 2 1 0 0 0 0 0 0 0 0 0 0 0 0 0 0 0
22 21 21 21 18 15 11 9 6 2 1 2 3 5 5 4 5 4 4 3 2 2 1 1 1 2 3 2 1 0 0 0 0 0 0 0 0 0 0 0 0 0 0
25 25 26 25 22 20 18 16 11 6 3 3 3 4 4 3 3 5 5 4 4 4 4 4 3 3 3 4 2 1 0 0 0 0 0 0 0 0 0 0 0 0 0
26 27 28 28 25 22 21 19 13 8 5 3 3 4 4 2 2 4 5 4 4 5 6 6 5 4 4 5 3 1 0 0 0 0 0 0 0 0 0 0 0 0 0

GEFSSE_con_probscp_234.txt.gz
Probability
0 0 0 1 2 5 6 4 4 5 7 8 7 8 9 9 7 4 2 2 3 3 2 1 1 2 1 0 1 2 2 3 4 3 2 1 2 3 3 3 2 1 0
0 0 0 0 2 4 5 4 4 5 7 8 9 8 8 8 7 4 1 2 3 3 1 1 2 2 1 0 0 1 1 2 3 2 1 0 1 3 3 2 1 1 0
0 0 0 0 1 3 4 4 5 6 8 9 10 9 8 6 5 4 1 1 3 3 2 2 3 3 2 0 0 0 0 1 1 1 0 0 1 2 2 1 1 1 1
0 0 0 0 1 3 4 5 7 8 9 10 10 10 8 6 4 3 2 2 3 3 3 3 3 2 1 0 0 1 0 0 0 0 0 0 0 1 1 1 1 1 1
0 0 0 0 1 3 4 5 7 9 10 9 9 9 8 7 5 4 3 3 4 4 3 3 1 1 0 0 0 0 0 0 0 0 0 0 0 0 0 0 0 0 0
0 0 0 1 3 4 4 4 6 8 8 8 8 8 8 7 5 4 4 4 5 6 4 2 1 1 1 1 0 0 0 0 0 0 0 0 0 0 0 0 0 0 0
1 0 0 2 5 5 4 4 5 5 5 5 5 6 6 5 4 4 4 4 5 6 5 3 3 3 2 2 1 0 0 0 0 0 0 0 0 0 1 0 0 0 0
2 1 0 2 5 5 4 4 4 3 3 3 2 3 3 4 3 3 3 3 3 4 4 5 5 4 2 3 2 1 0 0 0 0 0 0 0 0 0 0 0 0 0
2 1 0 1 3 3 3 4 3 1 1 1 1 1 1 2 3 3 3 2 2 2 3 4 5 4 3 3 2 1 0 0 0 0 0 0 0 0 0 0 0 0 0
1 0 0 0 1 1 2 2 1 0 1 1 1 1 1 1 2 2 1 1 2 3 4 4 4 3 2 2 2 2 1 0 0 0 0 0 0 0 0 0 0 0 0
0 0 0 0 0 0 1 1 0 1 2 2 1 1 0 0 1 1 1 2 2 4 4 4 3 3 1 0 1 1 1 0 0 0 0 0 0 0 0 0 0 0 0
0 0 0 0 0 0 0 0 0 1 2 3 2 1 0 0 0 1 2 2 3 3 3 2 2 2 1 0 0 0 0 0 0 0 0 0 0 0 0 0 0 0 0
1 0 0 0 0 0 0 0 0 1 2 3 2 1 0 0 0 1 1 2 2 1 1 1 1 1 0 0 0 0 0 0 0 0 0 0 0 0 0 0 0 0 0
1 0 0 0 0 0 0 0 0 1 2 2 1 0 0 0 0 0 0 0 0 0 0 0 0 0 0 0 0 0 0 0 0 0 0 0 0 0 0 0 1 1 1
1 0 0 0 0 0 0 0 0 1 2 1 0 0 0 0 0 0 0 0 0 0 0 0 0 0 0 0 0 0 0 0 0 0 0 0 0 0 0 0 1 2 2
0 0 0 0 0 0 0 0 0 1 1 0 0 0 0 0 0 0 0 0 0 0 0 0 0 0 0 0 0 0 0 0 0 0 0 0 0 0 0 0 2 3 3
0 0 0 0 0 0 0 0 0 0 0 0 0 0 0 0 0 0 0 0 0 0 0 0 0 0 0 0 0 0 0 0 0 0 0 0 0 0 0 1 2 3 3
1 1 0 0 0 0 0 0 0 0 0 0 0 0 0 0 0 0 0 0 0 0 0 0 0 0 0 0 0 0 0 0 0 0 0 0 0 0 0 1 2 2 2
3 3 1 0 0 0 0 0 0 0 0 0 0 0 0 0 0 0 0 0 0 0 0 0 0 0 0 0 0 0 0 0 0 0 0 0 0 0 0 0 1 1 1
5 4 3 1 1 1 0 0 0 0 0 0 0 0 0 0 0 0 0 0 0 0 0 0 0 0 0 0 0 0 0 0 0 0 0 0 0 0 0 0 0 0 1
6 4 3 3 2 2 1 0 0 0 0 0 0 0 0 0 0 0 0 0 0 0 0 0 0 0 0 0 0 0 0 0 0 0 0 0 0 0 0 0 0 1 2
5 4 3 3 3 3 1 0 0 0 0 0 0 0 0 0 0 0 0 0 0 0 0 0 0 0 0 0 0 0 0 0 0 0 0 0 0 0 0 1 1 1 2
6 4 3 3 3 3 2 1 0 0 0 0 0 0 0 0 0 0 0 0 0 0 0 0 0 0 1 0 0 0 0 0 0 0 0 0 0 0 1 2 2 2 2
7 5 4 3 3 4 4 3 1 1 0 0 0 0 0 0 0 0 0 0 0 0 0 0 0 0 1 1 1 1 0 0 0 0 0 0 0 0 1 2 3 2 1
9 9 6 5 5 7 8 7 4 3 1 0 0 0 0 0 0 0 0 0 0 0 0 0 1 1 1 2 2 2 1 1 1 1 1 0 0 0 1 1 2 1 1
10 11 10 7 7 9 10 9 6 4 2 1 0 0 0 0 0 0 0 0 0 0 0 1 2 2 2 3 3 3 2 2 2 2 2 1 0 0 0 0 1 1 0

GEFSSE_con_probscp_240.txt.gz
Probability
0 0 1 2 3 3 3 4 5 6 5 3 1 1 2 3 4 4 2 1 2 2 2 1 0 0 1 2 4 4 2 0 0 0 1 1 1 0 1 1 1 1 0
0 0 1 2 4 4 5 6 8 7 5 3 1 1 3 4 5 4 2 1 2 1 1 0 0 0 1 2 3 4 2 0 0 1 1 1 0 1 2 2 2 2 1
0 0 0 2 5 7 8 10 11 8 4 3 3 3 5 6 5 4 2 1 1 1 0 0 0 0 1 3 4 4 2 0 0 1 1 0 1 2 3 3 3 2 1
0 0 0 2 5 7 9 11 10 7 5 4 5 5 6 6 5 4 2 1 1 2 1 1 1 1 2 4 5 4 1 0 1 1 1 0 1 3 3 3 3 1 0
0 0 0 1 2 5 7 9 9 8 6 6 6 6 7 6 4 4 3 2 2 2 2 2 2 2 3 4 4 2 0 0 1 0 0 0 1 2 3 3 2 1 0
0 0 0 0 1 3 5 6 8 8 7 6 6 7 8 7 5 3 3 3 3 2 2 3 3 3 3 3 2 1 0 0 0 0 0 0 1 1 2 3 2 1 0
0 0 0 0 0 1 3 6 8 8 7 6 7 8 9 7 4 3 3 3 3 2 2 3 3 3 3 3 1 0 0 0 0 0 0 0 0 0 1 1 1 1 0
0 0 0 0 0 0 2 6 8 8 7 6 7 8 9 7 4 3 3 3 3 3 3 3 3 3 4 4 1 0 0 0 0 0 0 0 0 0 0 0 0 0 0
0 0 0 0 0 0 1 5 8 7 7 6 7 8 7 5 4 4 3 3 3 2 2 3 3 3 4 4 1 0 0 0 0 0 0 0 0 0 0 0 0 0 0
0 0 0 0 0 0 1 3 5 5 5 5 5 5 4 3 3 3 3 2 1 1 1 2 3 3 3 3 2 1 0 0 0 0 0 0 0 0 0 0 0 0 0
0 0 0 0 0 0 0 1 1 2 2 2 2 2 2 2 1 1 2 1 0 0 1 2 3 2 2 2 2 1 0 0 0 0 0 0 0 0 0 0 0 0 0
0 0 0 0 0 0 0 1 3 3 2 2 2 2 2 3 2 1 1 1 1 0 1 2 2 1 0 1 1 1 0 0 0 0 0 1 1 0 0 0 0 0 0
0 0 0 0 0 0 1 3 5 6 5 4 3 3 4 4 3 2 1 1 1 0 0 1 1 0 0 0 0 0 0 0 0 0 1 2 2 1 0 0 0 0 0
0 0 0 0 1 1 2 4 5 5 5 4 4 4 4 4 3 2 2 2 1 0 0 1 0 0 0 0 0 0 0 0 0 0 1 2 3 1 0 0 0 0 0
0 0 0 1 2 2 3 4 4 3 4 5 5 5 4 3 2 1 2 2 1 0 0 0 0 0 0 0 0 0 0 0 0 0 0 2 4 4 1 0 0 0 0
0 0 0 1 2 3 4 4 4 3 4 5 6 5 4 3 2 1 1 1 1 0 0 0 0 0 0 0 0 0 0 0 0 0 0 2 5 6 4 2 1 0 0
0 0 0 1 2 3 3 4 4 4 5 7 7 5 3 2 2 1 1 1 0 1 1 0 0 0 0 0 0 0 0 0 0 0 0 1 4 5 5 3 1 0 0
1 1 1 2 4 4 3 3 4 6 8 9 8 6 3 1 2 2 2 1 1 2 1 0 0 0 0 0 0 0 0 0 0 0 0 1 2 3 4 3 1 0 0
2 4 4 4 5 5 3 3 4 7 8 9 9 7 4 1 2 3 3 3 3 2 1 0 0 0 1 1 0 0 0 0 0 0 0 0 1 2 2 2 2 1 0
4 5 6 7 7 5 3 2 3 4 5 6 6 5 3 1 1 2 3 3 3 2 1 0 0 0 1 2 1 0 0 0 0 0 0 0 0 1 1 1 1 1 1
5 6 7 8 9 8 4 3 3 3 3 4 4 3 1 1 1 1 1 2 1 1 0 0 1 1 1 2 2 1 0 0 0 0 0 0 0 0 0 1 2 2 3
7 7 6 8 11 10 8 6 5 4 3 3 3 2 1 1 1 1 1 1 0 0 0 1 2 2 2 3 3 2 1 0 0 1 1 0 0 0 0 1 3 4 4
7 6 5 7 10 11 10 8 7 6 4 4 3 1 1 1 1 1 1 1 0 0 1 2 3 3 3 3 3 3 1 1 1 2 2 1 0 1 1 1 3 4 4
4 5 7 9 11 11 11 10 8 7 5 5 3 1 1 2 2 2 2 1 0 0 1 2 3 3 3 2 3 4 4 3 3 3 2 1 2 3 3 3 3 5 5
2 5 10 14 15 14 13 12 11 8 7 5 4 3 2 3 4 5 4 2 1 0 1 1 1 3 3 3 5 6 7 7 7 6 4 3 4 5 6 6 7 8 8
3 6 13 19 20 19 16 14 13 10 7 5 4 3 3 4 5 6 6 3 1 0 0 0 1 2 4 5 6 7 9 10 9 9 7 5 5 6 7 8 8 9 10